SCP
1 1 1 1 1 1 1 1 1 1 1 1 1 1 0 0 0 0 0 0 0 1 1 1 1 1 1 1 1 1 1 1 1 1 1 1 1 1 1 1 1 1 0
1 1 1 1 1 1 1 0 1 1 1 1 1 0 0 0 0 0 0 0 0 0 1 1 1 1 1 1 1 1 1 1 1 1 1 1 1 1 1 1 1 1 1
1 1 1 1 1 1 1 0 0 1 1 1 0 0 0 0 0 0 0 0 0 0 0 1 1 1 1 1 1 1 1 1 1 1 1 1 1 1 1 1 1 1 1
1 1 1 1 1 1 1 1 1 1 1 0 0 0 0 0 0 0 0 0 0 0 0 0 1 1 1 1 1 1 1 1 1 1 1 1 1 1 1 1 1 1 1
1 1 1 1 1 1 1 1 1 1 0 0 0 0 0 0 0 0 0 0 0 0 0 0 1 1 1 1 1 1 1 1 1 1 1 1 1 1 1 1 1 1 1
1 1 1 2 2 1 1 1 1 1 0 0 0 0 0 0 0 0 0 0 0 0 0 0 0 0 0 1 1 1 1 1 1 1 1 1 1 1 1 1 1 1 1
1 1 1 1 2 2 1 1 1 1 0 0 0 0 0 0 0 0 0 0 0 0 0 0 0 0 0 0 0 1 1 1 1 1 1 1 1 1 1 1 1 1 1
1 1 1 1 1 2 1 1 1 1 0 0 0 0 0 0 0 0 0 0 0 0 0 0 0 0 0 0 0 0 0 1 1 1 1 1 1 1 1 1 1 1 1
1 1 1 1 1 2 2 1 1 0 0 0 0 0 0 0 0 0 0 0 0 0 0 0 0 0 0 0 0 0 0 0 1 1 1 1 1 1 1 1 1 1 1
1 1 1 1 1 2 2 1 1 0 0 0 0 0 0 0 0 0 0 0 0 0 0 0 0 0 0 0 0 0 0 0 0 1 1 1 1 1 1 1 1 1 1
1 1 1 1 1 1 1 1 1 0 0 0 0 0 0 0 0 0 0 0 0 0 0 0 0 0 0 0 0 0 0 0 0 0 0 1 1 1 1 1 1 1 1
0 1 1 1 1 1 1 1 0 0 0 0 0 0 0 0 0 0 0 0 0 0 0 0 0 0 0 0 0 0 0 0 0 0 0 0 0 1 1 1 1 1 1
0 0 1 1 1 0 0 0 0 0 0 0 0 0 0 0 0 0 0 0 0 0 0 0 0 0 0 0 0 0 0 0 0 0 0 0 0 0 1 1 1 1 0
0 0 0 0 0 0 0 0 0 0 0 0 0 0 0 0 0 0 0 0 0 0 0 0 0 0 0 0 0 0 0 0 0 0 0 0 0 0 0 0 0 0 0
0 0 0 0 0 0 0 0 0 0 0 0 0 0 0 0 0 0 0 0 0 0 0 0 0 0 0 0 0 0 0 0 0 0 0 0 0 0 0 0 0 0 0
0 0 0 0 0 0 0 0 0 0 0 0 0 0 0 0 0 0 0 0 0 0 0 0 0 0 0 0 0 0 0 0 0 0 0 0 0 0 0 0 0 0 0
0 0 0 0 0 0 0 0 0 0 0 0 0 0 0 0 0 0 0 0 0 0 0 0 0 0 0 0 0 0 0 0 0 0 0 0 0 0 0 0 0 0 0
0 0 0 0 0 0 0 0 0 0 0 0 0 0 0 0 0 0 0 0 0 0 0 0 0 0 0 0 0 0 0 0 0 0 0 0 0 0 0 0 0 0 0
0 0 0 0 0 0 0 0 0 0 0 0 0 0 0 0 0 0 0 0 0 0 0 0 0 0 0 0 0 0 0 0 0 0 0 0 0 0 0 0 0 0 0
0 0 0 0 0 0 0 0 0 0 0 0 0 0 0 0 0 0 0 0 0 0 0 0 0 0 0 0 0 0 0 0 0 0 0 0 0 0 0 0 0 0 0
0 0 0 0 0 0 0 0 0 0 0 0 0 0 0 0 0 0 0 0 0 0 0 0 0 0 0 0 0 0 0 0 0 0 0 0 0 0 0 0 0 0 0
0 0 0 0 0 0 0 0 0 0 0 0 0 0 0 0 0 0 0 0 0 0 0 0 0 0 0 0 0 0 0 0 0 0 0 0 0 0 0 0 0 0 0
0 0 0 0 0 0 0 0 0 0 0 0 0 0 0 0 0 0 0 0 0 0 0 0 0 0 0 0 0 0 0 0 0 0 0 0 0 0 0 0 0 0 0
0 0 0 0 0 0 0 0 0 0 0 0 0 0 0 0 0 0 0 0 0 0 0 0 0 0 0 0 0 0 0 0 0 0 0 0 0 0 0 0 0 0 0
0 0 0 0 0 0 0 0 0 0 0 0 0 0 0 0 0 0 0 0 0 0 0 0 0 0 0 0 0 0 0 0 0 0 0 0 0 0 0 0 0 0 0
0 0 0 0 0 0 0 0 0 0 0 0 0 0 0 0 0 0 0 0 0 0 0 0 0 0 0 0 0 0 0 0 0 0 0 0 0 0 0 0 0 0 0
Wind_Speed
2 2 2 2 2 2 2 2 3 3 3 4 4 4 4 4 4 3 3 6 6 6 5 6 6 7 7 7 7 8 7 7 7 7 7 7 7 7 7 7 6 6 6
2 2 2 2 2 2 2 2 2 2 2 2 3 3 3 3 3 3 3 4 6 6 5 5 5 6 6 6 7 7 7 7 7 6 6 6 6 6 6 6 6 6 5
2 2 1 1 1 1 2 2 3 2 2 2 3 3 3 3 3 3 3 3 3 5 5 5 5 5 5 6 6 6 6 6 6 5 5 5 5 5 4 4 4 4 4
2 2 2 1 1 1 2 2 2 2 2 2 2 2 2 2 3 3 3 3 3 3 4 5 4 4 4 5 5 5 5 4 4 4 4 4 4 3 3 3 3 3 3
2 2 2 1 1 1 1 2 1 1 2 2 2 2 2 2 2 3 3 4 3 3 3 4 6 5 4 4 4 4 4 4 3 3 3 3 2 2 2 1 1 2 2
2 2 2 2 2 2 1 2 2 2 1 2 2 2 2 2 2 3 3 3 4 4 4 4 3 4 6 6 5 4 3 2 2 2 2 2 1 1 1 1 1 1 2
2 1 1 1 1 1 1 2 2 2 1 1 2 2 2 2 3 3 3 3 4 4 4 4 3 2 2 5 5 4 3 2 1 1 1 0 0 1 2 2 2 3 3
1 1 1 1 1 1 1 1 2 1 1 1 2 1 1 1 1 2 2 2 3 2 3 4 3 3 2 2 3 5 4 3 2 1 1 1 1 1 2 3 3 4 4
0 0 1 1 1 1 2 2 2 2 2 1 1 2 2 2 1 1 1 2 2 2 2 2 3 3 3 2 1 3 4 4 3 3 3 3 2 2 2 3 4 4 4
0 0 0 1 1 1 1 2 2 2 3 3 1 1 1 2 2 1 1 1 1 1 1 1 2 2 3 2 2 4 4 4 4 4 4 4 3 3 4 4 3 3 4
0 0 0 1 1 1 1 1 1 2 2 3 3 2 1 1 1 2 2 1 1 1 1 1 0 1 1 2 1 2 3 4 4 4 5 5 5 5 5 5 4 4 4
1 1 0 1 1 1 2 2 2 2 3 3 3 2 3 2 2 2 2 2 2 2 2 1 1 1 0 1 2 3 4 4 4 4 5 6 6 6 6 6 6 5 5
2 2 1 1 1 2 2 2 2 2 2 3 4 3 2 2 2 2 2 1 1 2 1 1 2 1 1 0 1 3 4 5 5 5 6 6 6 6 6 6 7 7 7
2 2 2 2 2 2 2 2 2 2 2 3 3 3 2 2 2 2 2 2 1 2 2 3 1 2 1 1 2 3 3 5 5 6 7 7 6 6 6 6 7 7 8
2 2 3 3 2 2 2 2 2 2 2 3 3 3 3 2 2 2 2 3 3 3 4 3 2 1 1 1 3 2 2 5 6 7 7 7 7 6 6 6 6 7 7
2 3 3 3 3 3 3 2 2 3 3 3 3 3 4 3 3 3 3 2 2 3 4 3 3 2 2 3 4 3 3 7 7 7 7 7 7 7 6 7 7 7 7
2 3 3 3 4 3 3 3 3 3 4 4 4 4 4 4 3 3 3 3 3 3 4 3 2 2 3 3 3 3 3 3 4 7 7 8 8 8 7 7 7 8 8
3 3 3 3 4 4 4 4 4 4 4 5 5 5 5 3 4 4 4 4 4 4 4 5 3 3 4 4 4 4 3 3 3 7 8 8 8 8 8 8 8 8 8
2 2 2 3 3 3 4 4 5 5 5 5 5 6 5 5 5 4 5 5 4 4 4 4 4 3 3 2 3 3 4 3 4 6 8 8 8 8 9 8 8 8 8
2 2 3 3 3 3 4 4 4 5 5 5 5 5 5 6 6 6 5 6 5 4 4 4 4 3 3 3 3 3 4 3 4 4 6 7 8 9 10 10 9 9 9
2 2 2 2 3 3 3 4 4 4 4 4 4 5 5 7 8 6 5 5 5 5 4 4 4 4 4 3 4 3 4 3 4 3 4 4 4 4 5 8 9 9 10
2 2 2 2 3 3 5 6 5 4 4 4 5 4 5 6 7 8 8 8 8 6 6 5 5 6 6 5 4 4 4 4 4 3 3 4 3 4 4 4 9 11 11
2 2 2 3 4 5 7 7 7 4 4 4 5 4 4 4 6 4 6 9 9 10 9 6 7 7 6 5 6 6 6 6 6 3 3 5 3 5 4 7 12 12 12
2 3 3 3 4 5 7 8 8 5 4 5 5 5 5 5 5 5 5 5 6 6 8 6 7 7 6 6 6 6 6 5 4 3 4 5 4 4 5 5 11 12 12
3 3 3 3 4 5 7 8 7 3 3 4 5 5 5 6 9 9 6 5 6 5 8 10 9 8 9 9 6 3 3 4 5 4 3 4 3 4 4 5 7 10 10
3 3 3 3 4 4 7 8 7 3 4 4 3 4 7 7 9 9 6 5 6 5 4 4 5 6 5 6 8 6 5 5 4 4 3 3 3 2 4 4 3 3 5
Wind_Direction
78 59 56 53 50 52 59 58 57 58 63 66 62 62 52 41 36 29 16 31 44 67 90 104 104 102 105 105 102 98 94 91 91 92 93 95 95 95 97 96 97 96 93
81 87 71 60 50 47 49 61 62 70 60 69 65 58 51 39 36 32 24 22 32 47 67 85 95 99 102 108 107 103 98 95 92 92 96 97 98 98 99 98 96 97 99
83 85 88 64 45 53 67 63 58 65 63 57 62 51 50 42 36 33 30 28 26 32 51 65 76 88 99 106 108 102 98 95 92 88 93 98 98 102 105 105 108 105 101
76 97 92 68 41 62 82 86 77 74 75 56 51 41 35 34 33 35 39 36 32 30 35 44 51 73 87 96 102 106 103 96 94 93 92 95 99 98 109 122 126 122 113
65 100 107 90 79 73 76 92 76 90 106 83 50 42 33 34 27 36 43 40 36 33 35 38 41 45 55 72 79 86 96 97 96 97 94 91 102 115 121 123 130 140 138
52 82 98 88 91 91 77 84 94 73 102 98 71 45 29 27 35 40 42 41 37 36 36 45 45 35 39 45 51 54 65 88 94 90 92 90 87 131 175 201 217 210 199
50 71 85 103 98 116 123 113 106 97 86 77 79 43 25 38 48 36 34 42 38 31 36 39 41 46 34 28 32 32 30 38 52 104 146 146 207 252 241 235 240 240 225
62 76 109 122 121 128 124 129 119 123 96 87 109 108 40 358 13 27 31 45 34 23 31 26 29 36 41 29 14 22 20 15 359 336 274 264 249 259 265 258 247 247 241
93 60 133 140 146 156 169 178 169 153 161 162 104 139 153 205 274 336 28 36 21 26 25 23 26 19 17 20 12 7 14 12 3 350 342 305 277 270 279 287 263 253 250
59 29 121 143 160 166 176 201 185 178 165 175 176 71 115 149 156 220 298 11 1 356 7 13 12 3 6 356 359 1 3 0 348 340 332 321 295 286 279 282 287 289 281
288 333 185 170 182 191 195 206 203 194 187 179 171 164 125 77 114 159 212 259 308 290 299 298 291 313 346 350 339 336 349 344 334 326 321 317 318 312 299 290 286 284 287
261 253 261 207 205 202 202 212 207 204 207 191 176 172 170 170 177 168 189 226 255 270 283 260 234 238 261 322 328 341 330 322 319 313 310 311 308 307 315 311 294 284 283
261 254 253 244 235 222 211 207 207 212 216 210 195 191 189 187 170 170 165 200 253 279 273 249 229 217 250 296 299 326 319 316 314 306 300 301 303 305 306 307 313 301 286
247 245 243 246 240 233 220 208 209 221 218 223 213 195 193 194 184 180 171 170 215 264 254 248 242 220 219 248 285 319 304 311 313 306 298 298 303 302 302 305 305 309 300
250 242 234 238 242 232 223 215 216 224 223 227 220 206 202 198 198 197 185 183 182 215 242 233 233 226 248 261 280 283 278 292 299 301 299 296 292 291 292 295 298 301 306
246 241 238 236 238 234 224 220 230 220 220 226 214 205 209 198 197 200 201 209 205 205 236 231 237 254 256 272 279 285 274 290 292 289 289 290 285 284 284 287 289 292 296
243 241 235 234 235 233 228 222 227 227 225 233 219 210 215 203 204 204 203 209 217 210 232 257 248 241 225 241 264 265 264 258 268 281 281 285 280 278 277 277 281 286 288
244 245 240 237 236 234 233 229 227 229 227 230 222 215 218 211 216 212 208 212 215 214 216 243 245 230 229 234 241 249 270 273 263 275 276 276 278 275 273 272 274 279 283
248 251 243 239 240 237 237 240 230 226 227 232 224 217 216 210 217 217 214 215 217 221 216 227 243 243 243 240 252 263 261 259 268 270 271 269 274 276 271 272 273 276 279
237 242 244 242 242 240 238 243 246 238 232 236 230 221 216 215 217 213 215 216 216 218 218 221 230 239 244 232 225 247 265 249 263 271 266 266 270 276 273 273 272 272 273
240 240 242 248 251 245 237 236 241 245 241 244 237 228 226 231 234 227 222 213 211 215 217 227 230 234 230 222 226 230 253 262 258 248 256 260 264 268 265 268 271 270 271
249 240 239 241 249 252 260 257 250 242 243 248 247 242 240 240 243 246 250 243 232 222 222 224 234 234 235 229 225 231 242 255 262 228 235 263 255 262 266 257 263 267 269
248 247 244 240 250 261 267 264 261 252 236 245 246 239 244 247 246 238 249 254 252 250 245 237 236 237 238 230 225 230 235 243 255 246 246 265 248 256 263 267 265 265 267
242 246 250 245 253 266 273 267 267 255 238 244 242 232 234 238 241 235 233 241 246 249 250 244 235 237 237 231 226 234 235 248 265 251 229 258 258 258 270 267 261 260 264
253 249 250 245 250 267 275 273 270 254 249 249 247 243 240 236 244 247 234 237 250 257 265 265 258 255 255 253 245 235 233 239 259 253 224 239 257 273 272 266 263 260 260
255 259 268 258 254 260 273 275 268 250 256 256 251 248 251 252 250 250 232 225 238 246 246 261 267 264 253 245 246 230 219 235 258 260 220 220 250 275 281 269 255 258 265